| time (UTC) | temp C | wind direction | speed KPH | gust KPH | rain 1hr cm | rain 24hr cm | rain mn cm | humidity % | barometer mb |
| 20260507085725 | 13 | 155 | 0.0 | 0.0 | 0.00 | 0.05 | 0.05 | 87 | 1010.9 |
| 20260507084724 | 14 | 228 | 0.0 | 1.6 | 0.00 | 0.05 | 0.05 | 88 | 1010.6 |
| 20260507083724 | 14 | 198 | 0.0 | 0.0 | 0.00 | 0.05 | 0.05 | 87 | 1010.9 |
| 20260507082722 | 14 | 358 | 3.2 | 3.2 | 0.00 | 0.05 | 0.05 | 90 | 1010.8 |
| 20260507081721 | 14 | 231 | 1.6 | 1.6 | 0.00 | 0.05 | 0.05 | 90 | 1010.6 |
| 20260507080719 | 14 | 173 | 0.0 | 0.0 | 0.00 | 0.05 | 0.05 | 90 | 1010.4 |
| 20260507075717 | 14 | 228 | 0.0 | 0.0 | 0.00 | 0.05 | 0.05 | 89 | 1010.5 |
| 20260507074715 | 14 | 221 | 0.0 | 1.6 | 0.00 | 0.05 | 0.05 | 90 | 1010.4 |
| 20260507073710 | 14 | 272 | 1.6 | 3.2 | 0.00 | 0.05 | 0.05 | 92 | 1010.4 |
| 20260507072710 | 15 | 343 | 4.8 | 4.8 | 0.00 | 0.05 | 0.05 | 94 | 1010.6 |
| 20260507071711 | 15 | 317 | 1.6 | 1.6 | 0.00 | 0.05 | 0.05 | 95 | 1010.2 |
| 20260507070710 | 15 | 282 | 1.6 | 1.6 | 0.00 | 0.05 | 0.05 | 95 | 1010.3 |
| 20260507065709 | 15 | 322 | 0.0 | 1.6 | 0.00 | 0.05 | 0.05 | 96 | 1009.4 |
| 20260507064703 | 15 | 251 | 1.6 | 1.6 | 0.00 | 0.05 | 0.05 | 96 | 1009.2 |
| 20260507063659 | 16 | 244 | 0.0 | 0.0 | 0.00 | 0.05 | 0.05 | 96 | 1009.0 |
| 20260507062658 | 16 | 247 | 0.0 | 0.0 | 0.00 | 0.05 | 0.05 | 95 | 1008.7 |
| 20260507061654 | 16 | 206 | 0.0 | 0.0 | 0.00 | 0.05 | 0.05 | 95 | 1009.0 |
| 20260507060649 | 16 | 213 | 0.0 | 0.0 | 0.18 | 0.05 | 0.05 | 94 | 1009.2 |
| 20260507055647 | 17 | 228 | 0.0 | 0.0 | 0.00 | 0.03 | 0.03 | 93 | 1009.5 |
| 20260507054645 | 17 | 192 | 0.0 | 0.0 | 0.00 | 0.03 | 0.03 | 93 | 1009.4 |
| 20260507053640 | 17 | 227 | 0.0 | 0.0 | 0.18 | 0.03 | 0.03 | 92 | 1009.6 |
| 20260507052636 | 17 | 220 | 0.0 | 0.0 | 0.00 | 0.00 | 0.00 | 93 | 1009.7 |
| 20260507051636 | 17 | 209 | 0.0 | 0.0 | 0.00 | 0.00 | 0.00 | 94 | 1009.7 |
| 20260507050635 | 17 | 215 | 0.0 | 0.0 | 0.00 | 0.00 | 0.00 | 96 | 1009.8 |
| 20260507045634 | 17 | 199 | 0.0 | 0.0 | 0.00 | 0.00 | 0.00 | 95 | 1009.5 |
| 20260507044634 | 17 | 199 | 0.0 | 0.0 | 0.00 | 0.00 | 0.00 | 95 | 1009.6 |
| 20260507043633 | 17 | 199 | 0.0 | 0.0 | 0.00 | 0.00 | 0.00 | 95 | 1009.6 |
| 20260507042632 | 17 | 189 | 0.0 | 0.0 | 0.00 | 0.00 | 0.00 | 94 | 1009.5 |
| 20260507041630 | 17 | 189 | 0.0 | 0.0 | 0.00 | 0.00 | 0.00 | 94 | 1009.3 |
| 20260507040630 | 17 | 183 | 0.0 | 0.0 | 0.00 | 0.00 | 0.00 | 94 | 1009.3 |
| 20260507035628 | 17 | 183 | 0.0 | 0.0 | 0.00 | 0.18 | 0.18 | 94 | 1009.4 |
| 20260507034627 | 17 | 183 | 0.0 | 0.0 | 0.00 | 0.18 | 0.18 | 94 | 1009.4 |
| 20260507033623 | 17 | 206 | 0.0 | 0.0 | 0.00 | 0.18 | 0.18 | 95 | 1009.8 |
| 20260507032623 | 17 | 207 | 0.0 | 0.0 | 0.00 | 0.18 | 0.18 | 94 | 1009.4 |
| 20260507031621 | 17 | 204 | 0.0 | 0.0 | 0.00 | 0.18 | 0.18 | 93 | 1009.2 |
| 20260507030620 | 17 | 204 | 0.0 | 0.0 | 0.00 | 0.18 | 0.18 | 92 | 1009.1 |
| 20260507025615 | 17 | 181 | 0.0 | 0.0 | 0.00 | 0.18 | 0.18 | 92 | 1008.5 |
| 20260507024610 | 18 | 177 | 0.0 | 0.0 | 0.00 | 0.18 | 0.18 | 91 | 1008.7 |
| 20260507023608 | 18 | 176 | 0.0 | 0.0 | 0.00 | 0.18 | 0.18 | 90 | 1008.9 |
| 20260507022603 | 18 | 183 | 0.0 | 0.0 | 0.00 | 0.18 | 0.18 | 90 | 1009.3 |
| 20260507021600 | 18 | 183 | 0.0 | 0.0 | 0.00 | 0.18 | 0.18 | 91 | 1009.4 |
| 20260507020555 | 18 | 197 | 0.0 | 0.0 | 0.00 | 0.18 | 0.18 | 91 | 1009.6 |
| 20260507015555 | 18 | 196 | 0.0 | 0.0 | 0.00 | 0.18 | 0.18 | 90 | 1009.4 |
| 20260507014555 | 18 | 196 | 0.0 | 0.0 | 0.00 | 0.18 | 0.18 | 90 | 1009.1 |
| 20260507013553 | 18 | 170 | 0.0 | 0.0 | 0.00 | 0.18 | 0.18 | 88 | 1009.2 |
| 20260507012548 | 18 | 173 | 0.0 | 0.0 | 0.00 | 0.18 | 0.18 | 87 | 1009.1 |
| 20260507011547 | 18 | 173 | 0.0 | 0.0 | 0.00 | 0.18 | 0.18 | 86 | 1008.9 |
| 20260507010544 | 19 | 188 | 0.0 | 0.0 | 0.00 | 0.18 | 0.18 | 86 | 1009.1 |
| 20260507005538 | 19 | 181 | 0.0 | 0.0 | 0.00 | 0.18 | 0.18 | 86 | 1009.1 |
| 20260507004537 | 19 | 182 | 0.0 | 0.0 | 0.00 | 0.18 | 0.18 | 85 | 1009.0 |
| 20260507003536 | 19 | 173 | 0.0 | 0.0 | 0.00 | 0.18 | 0.18 | 85 | 1009.1 |
| 20260507002534 | 20 | 171 | 0.0 | 0.0 | 0.00 | 0.18 | 0.18 | 85 | 1009.2 |
| 20260507001532 | 20 | 183 | 0.0 | 0.0 | 0.00 | 0.18 | 0.18 | 84 | 1009.1 |
| 20260507000532 | 20 | 188 | 0.0 | 0.0 | 0.00 | 0.18 | 0.18 | 83 | 1008.6 |
| 20260506235531 | 20 | 169 | 0.0 | 0.0 | 0.00 | 0.18 | 0.18 | 82 | 1008.6 |
| 20260506234530 | 20 | 201 | 0.0 | 0.0 | 0.00 | 0.18 | 0.18 | 82 | 1008.6 |
| 20260506233530 | 20 | 185 | 0.0 | 0.0 | 0.00 | 0.18 | 0.18 | 81 | 1008.7 |
| 20260506232529 | 20 | 170 | 0.0 | 0.0 | 0.00 | 0.18 | 0.18 | 81 | 1008.6 |
| 20260506231528 | 20 | 169 | 0.0 | 0.0 | 0.00 | 0.18 | 0.18 | 80 | 1008.5 |
| 20260506230527 | 21 | 176 | 0.0 | 0.0 | 0.00 | 0.18 | 0.18 | 80 | 1008.3 |
| 20260506225527 | 21 | 190 | 0.0 | 0.0 | 0.00 | 0.18 | 0.18 | 79 | 1008.5 |
| 20260506224525 | 21 | 177 | 0.0 | 0.0 | 0.00 | 0.18 | 0.18 | 79 | 1008.5 |
| 20260506223523 | 21 | 184 | 0.0 | 0.0 | 0.00 | 0.18 | 0.18 | 79 | 1008.3 |
| 20260506222522 | 21 | 185 | 0.0 | 0.0 | 0.00 | 0.18 | 0.18 | 78 | 1008.6 |
| 20260506221521 | 21 | 129 | 0.0 | 0.0 | 0.00 | 0.18 | 0.18 | 78 | 1008.6 |
| 20260506220520 | 21 | 160 | 0.0 | 0.0 | 0.00 | 0.18 | 0.18 | 77 | 1008.5 |
| 20260506215519 | 21 | 233 | 0.0 | 1.6 | 0.00 | 0.18 | 0.18 | 77 | 1008.7 |
| 20260506214517 | 21 | 140 | 1.6 | 3.2 | 0.00 | 0.18 | 0.18 | 77 | 1008.6 |
| 20260506213513 | 21 | 180 | 1.6 | 1.6 | 0.00 | 0.18 | 0.18 | 79 | 1008.6 |
| 20260506212511 | 21 | 168 | 1.6 | 3.2 | 0.00 | 0.18 | 0.18 | 77 | 1008.7 |
| 20260506211509 | 21 | 224 | 0.0 | 0.0 | 0.00 | 0.18 | 0.18 | 77 | 1008.7 |
| 20260506210508 | 21 | 218 | 3.2 | 3.2 | 0.00 | 0.18 | 0.18 | 78 | 1008.7 |
| 20260506205508 | 20 | 219 | 1.6 | 3.2 | 0.00 | 0.18 | 0.18 | 79 | 1008.4 |
| 20260506204508 | 20 | 217 | 0.0 | 1.6 | 0.00 | 0.18 | 0.18 | 82 | 1008.7 |
| 20260506203502 | 20 | 236 | 1.6 | 1.6 | 0.00 | 0.18 | 0.18 | 83 | 1008.7 |
| 20260506202502 | 20 | 210 | 0.0 | 0.0 | 0.00 | 0.18 | 0.18 | 84 | 1008.7 |
| 20260506201502 | 20 | 171 | 0.0 | 1.6 | 0.00 | 0.18 | 0.18 | 83 | 1008.7 |
| 20260506200500 | 20 | 178 | 3.2 | 3.2 | 0.00 | 0.18 | 0.18 | 83 | 1008.6 |
| 20260506195500 | 20 | 158 | 0.0 | 0.0 | 0.00 | 0.18 | 0.18 | 84 | 1008.8 |
| 20260506194459 | 20 | 18 | 4.8 | 6.4 | 0.00 | 0.18 | 0.18 | 83 | 1009.0 |
| 20260506193500 | 20 | 210 | 1.6 | 1.6 | 0.00 | 0.18 | 0.18 | 82 | 1009.5 |
| 20260506192459 | 20 | 241 | 0.0 | 1.6 | 0.00 | 0.18 | 0.18 | 82 | 1009.2 |
| 20260506191458 | 20 | 126 | 0.0 | 0.0 | 0.00 | 0.18 | 0.18 | 83 | 1009.5 |
| 20260506190457 | 20 | 203 | 0.0 | 0.0 | 0.00 | 0.18 | 0.18 | 82 | 1009.5 |
| 20260506185457 | 20 | 139 | 0.0 | 0.0 | 0.00 | 0.18 | 0.18 | 82 | 1009.5 |
| 20260506184457 | 20 | 210 | 0.0 | 1.6 | 0.00 | 0.18 | 0.18 | 83 | 1009.7 |
| 20260506183455 | 20 | 169 | 0.0 | 1.6 | 0.00 | 0.18 | 0.18 | 83 | 1009.8 |
| 20260506182455 | 20 | 319 | 1.6 | 1.6 | 0.00 | 0.18 | 0.18 | 84 | 1010.2 |
| 20260506181451 | 19 | 191 | 0.0 | 0.0 | 0.00 | 0.18 | 0.18 | 85 | 1009.9 |
| 20260506180449 | 18 | 185 | 0.0 | 0.0 | 0.00 | 0.18 | 0.18 | 87 | 1009.9 |
| 20260506175449 | 18 | 196 | 0.0 | 1.6 | 0.00 | 0.18 | 0.18 | 87 | 1010.1 |
| 20260506174450 | 18 | 216 | 1.6 | 1.6 | 0.00 | 0.18 | 0.18 | 87 | 1010.3 |
| 20260506173449 | 18 | 178 | 0.0 | 1.6 | 0.00 | 0.18 | 0.18 | 89 | 1010.3 |
| 20260506172450 | 18 | 126 | 0.0 | 1.6 | 0.00 | 0.18 | 0.18 | 91 | 1010.2 |
| 20260506171449 | 17 | 174 | 3.2 | 3.2 | 0.00 | 0.18 | 0.18 | 92 | 1010.4 |
| 20260506170449 | 17 | 172 | 1.6 | 1.6 | 0.00 | 0.18 | 0.18 | 93 | 1010.5 |
| 20260506165446 | 17 | 238 | 1.6 | 3.2 | 0.00 | 0.18 | 0.18 | 93 | 1010.3 |
| 20260506164444 | 17 | 188 | 0.0 | 0.0 | 0.00 | 0.18 | 0.18 | 95 | 1010.7 |
| 20260506163443 | 16 | 152 | 0.0 | 0.0 | 0.00 | 0.18 | 0.18 | 96 | 1010.7 |
| 20260506162442 | 16 | 203 | 1.6 | 1.6 | 0.00 | 0.18 | 0.18 | 96 | 1010.5 |
| 20260506161437 | 16 | 156 | 1.6 | 1.6 | 0.13 | 0.18 | 0.18 | 95 | 1010.7 |
| 20260506160437 | 16 | 198 | 1.6 | 1.6 | 0.18 | 0.15 | 0.15 | 95 | 1010.8 |
| 20260506155434 | 16 | 172 | 0.0 | 0.0 | 0.13 | 0.13 | 0.13 | 94 | 1011.2 |
| 20260506153605 | 17 | 217 | 0.0 | 1.6 | 0.13 | 0.08 | 0.08 | 91 | 1011.4 |
| 20260506152604 | 17 | 157 | 0.0 | 0.0 | 0.00 | 0.05 | 0.05 | 89 | 1011.3 |
| 20260506151600 | 17 | 160 | 1.6 | 1.6 | 0.18 | 0.05 | 0.05 | 87 | 1011.6 |
| 20260506150600 | 17 | 151 | 1.6 | 1.6 | 0.00 | 0.03 | 0.03 | 86 | 1011.4 |
| 20260506145559 | 17 | 185 | 0.0 | 0.0 | 0.00 | 0.03 | 0.03 | 88 | 1011.6 |
| 20260506144559 | 17 | 194 | 0.0 | 0.0 | 0.00 | 0.03 | 0.03 | 89 | 1011.8 |
| 20260506143554 | 17 | 183 | 0.0 | 0.0 | 0.00 | 0.03 | 0.03 | 88 | 1011.6 |
| 20260506142550 | 17 | 157 | 0.0 | 0.0 | 0.13 | 0.03 | 0.03 | 86 | 1011.5 |
| 20260506141545 | 18 | 206 | 0.0 | 1.6 | 0.00 | 0.00 | 0.00 | 83 | 1011.5 |
| 20260506140540 | 18 | 226 | 1.6 | 1.6 | 0.00 | 0.00 | 0.00 | 79 | 1011.5 |
| 20260506135540 | 19 | 158 | 0.0 | 0.0 | 0.00 | 0.00 | 0.00 | 74 | 1011.5 |
| 20260506134539 | 19 | 163 | 0.0 | 1.6 | 0.00 | 0.00 | 0.00 | 73 | 1011.8 |
| 20260506133538 | 19 | 122 | 1.6 | 1.6 | 0.00 | 0.00 | 0.00 | 71 | 1011.7 |
| 20260506132538 | 19 | 219 | 0.0 | 1.6 | 0.00 | 0.00 | 0.00 | 70 | 1011.5 |
| 20260506131538 | 19 | 180 | 0.0 | 0.0 | 0.00 | 0.00 | 0.00 | 69 | 1011.6 |
| 20260506130537 | 19 | 186 | 0.0 | 0.0 | 0.00 | 0.00 | 0.00 | 69 | 1011.2 |
| 20260506125533 | 19 | 165 | 0.0 | 0.0 | 0.00 | 0.00 | 0.00 | 69 | 1011.2 |
| 20260506124528 | 19 | 163 | 1.6 | 3.2 | 0.00 | 0.00 | 0.00 | 69 | 1011.3 |
| 20260506123523 | 18 | 177 | 1.6 | 1.6 | 0.00 | 0.00 | 0.00 | 70 | 1011.3 |
| 20260506122523 | 18 | 182 | 0.0 | 0.0 | 0.00 | 0.00 | 0.00 | 71 | 1011.3 |
| 20260506121519 | 18 | 203 | 0.0 | 0.0 | 0.00 | 0.00 | 0.00 | 70 | 1011.4 |
| 20260506120519 | 18 | 165 | 1.6 | 3.2 | 0.00 | 0.00 | 0.00 | 71 | 1011.5 |
| 20260506115520 | 18 | 161 | 3.2 | 6.4 | 0.00 | 0.00 | 0.00 | 71 | 1011.6 |
| 20260506114515 | 18 | 129 | 0.0 | 1.6 | 0.00 | 0.00 | 0.00 | 71 | 1011.5 |
| 20260506113511 | 18 | 165 | 0.0 | 1.6 | 0.00 | 0.00 | 0.00 | 71 | 1011.4 |
| 20260506112510 | 18 | 202 | 0.0 | 1.6 | 0.00 | 0.00 | 0.00 | 70 | 1011.4 |
| 20260506111506 | 18 | 183 | 3.2 | 4.8 | 0.00 | 0.00 | 0.00 | 71 | 1011.4 |
| 20260506110506 | 17 | 178 | 0.0 | 0.0 | 0.00 | 0.00 | 0.00 | 72 | 1011.4 |
| 20260506105505 | 17 | 193 | 1.6 | 1.6 | 0.00 | 0.00 | 0.00 | 73 | 1011.2 |
| 20260506104500 | 17 | 190 | 0.0 | 0.0 | 0.00 | 0.00 | 0.00 | 73 | 1011.2 |
| 20260506103501 | 17 | 193 | 1.6 | 1.6 | 0.00 | 0.00 | 0.00 | 73 | 1011.0 |
| 20260506102456 | 17 | 191 | 0.0 | 1.6 | 0.00 | 0.00 | 0.00 | 74 | 1010.8 |
| 20260506101455 | 17 | 174 | 0.0 | 1.6 | 0.00 | 0.00 | 0.00 | 75 | 1010.9 |
| 20260506100451 | 17 | 148 | 1.6 | 1.6 | 0.00 | 0.00 | 0.00 | 75 | 1011.2 |
| 20260506095447 | 17 | 163 | 1.6 | 1.6 | 0.00 | 0.00 | 0.00 | 75 | 1011.2 |
| 20260506094447 | 17 | 187 | 1.6 | 1.6 | 0.00 | 0.00 | 0.00 | 75 | 1011.2 |
| 20260506093442 | 17 | 202 | 0.0 | 1.6 | 0.00 | 0.00 | 0.00 | 75 | 1011.2 |
| 20260506092437 | 17 | 134 | 4.8 | 6.4 | 0.00 | 0.00 | 0.00 | 76 | 1011.2 |
| 20260506091432 | 17 | 220 | 1.6 | 3.2 | 0.00 | 0.00 | 0.00 | 76 | 1011.3 |
| 20260506090432 | 18 | 175 | 1.6 | 1.6 | 0.00 | 0.00 | 0.00 | 76 | 1011.1 |